{"data":{"norad_id":48121,"intl_designator":"2021-027AF","name":"STARLINK-2462","alt_names":[],"object_type":"PAYLOAD","status":"ACTIVE","operator":null,"country":"US","launch_date":"2021-04-07","launch_site_code":"AFETR","launch_vehicle":null,"mission":null,"orbit_class":"UNKNOWN","rcs_meters":null,"size_class":null,"mass_kg":null,"dimensions":null,"purposes":["comms"],"wikipedia_slug":null,"has_3d_model":false,"image_url":null,"decayed_at":null,"tle_current":{"epoch":"2026-09-17T11:56:53.758752Z","epoch_age_seconds":289364,"freshness":"STALE","line1":"1 48121U 21027AF  26260.49784443  .00003285  00000+0  11756-3 0  9997","line2":"2 48121  53.1615 342.3077 0001593  86.3023 273.8161 15.31708511302044","mean_motion":15.31708511,"eccentricity":0.0001593,"inclination_deg":53.1615,"raan_deg":342.3077,"arg_perigee_deg":86.3023,"mean_anomaly_deg":273.8161,"bstar":0.00011756,"rev_number":30204,"period_min":94.012665573026,"perigee_km":469.62360243122,"apogee_km":471.80564655878,"semimajor_km":6848.851624495,"source":"CELESTRAK","updated_at":"2026-09-20T09:00:38.765626Z"}}}